Location: Le Rocchette
(44.3500°N, 7.8333°E)
Time: 21:19:58
(UTC+00:00)

Cosmos 1606 - Pass Details

Date: 17 November 2019
Orbit: 504 x 528 km, 82.5° (Epoch: 10 December)

Event Time Altitude Azimuth Distance (km) Brightness Sun altitude
Rises 05:32:32 0° 348° (NNW) 2,621 6.0 -9.8°
Reaches altitude 10° 05:34:40 10° 346° (NNW) 1,733 5.1 -9.5°
Maximum altitude 05:38:26 67° 265° (W) 557 2.6 -8.8°
Drops below altitude 10° 05:42:12 10° 182° (S) 1,730 5.6 -8.2°
Sets 05:44:20 0° 179° (S) 2,615 6.6 -7.8°
